CW2157 Weather Reports


Display with metric or nautical units.
time (UTC)temp
F
wind
direction
speed
MPH
gust
MPH
rain 1hr
in
rain 24hr
in
rain mn
in
humidity
%
barometer
mb
20260505181705 80 243 15.0 22.0 0.00 0.00 0.00 49 1010.0
20260505180205 79 18 14.0 20.0 0.00 0.00 0.00 47 1010.4
20260505175704 79 187 14.0 21.0 0.00 0.00 0.00 48 1010.4
20260505175205 79 207 14.0 20.0 0.00 0.00 0.00 47 1010.4
20260505174205 79 195 13.0 20.0 0.00 0.00 0.00 50 1010.4
20260505173705 78 243 16.0 24.0 0.00 0.00 0.00 49 1010.4
20260505173205 78 215 14.0 20.0 0.00 0.00 0.00 50 1010.4
20260505172705 78 304 15.0 23.0 0.00 0.00 0.00 51 1010.5
20260505172205 78 17 13.0 20.0 0.00 0.00 0.00 50 1010.5
20260505170705 77 197 14.0 22.0 0.00 0.00 0.00 53 1010.8
20260505170205 77 36 13.0 20.0 0.00 0.00 0.00 51 1010.9
20260505165705 77 172 12.0 17.0 0.00 0.00 0.00 51 1011.0
20260505164205 77 314 13.0 20.0 0.00 0.00 0.00 50 1011.1
20260505163205 76 191 12.0 18.0 0.00 0.00 0.00 55 1011.3
20260505162205 75 224 10.0 16.0 0.00 0.00 0.00 54 1011.3
20260505161705 75 187 13.0 20.0 0.00 0.00 0.00 55 1011.4
20260505161205 75 195 12.0 18.0 0.00 0.00 0.00 53 1011.5
20260505160705 75 186 10.0 17.0 0.00 0.00 0.00 54 1011.5
20260505153205 74 192 12.0 18.0 0.00 0.00 0.00 57 1011.5
20260505152705 74 184 12.0 18.0 0.00 0.00 0.00 54 1011.5
20260505152204 73 222 13.0 18.0 0.00 0.00 0.00 55 1011.5
20260505150705 73 207 10.0 16.0 0.00 0.00 0.00 57 1011.6
20260505150205 73 212 12.0 20.0 0.00 0.00 0.00 55 1011.7
20260505140205 71 208 11.0 17.0 0.00 0.00 0.00 58 1011.5
20260505124704 70 232 11.0 18.0 0.00 0.00 0.00 59 1011.4
20260505124204 69 217 11.0 15.0 0.00 0.00 0.00 62 1011.3
20260505123205 68 230 12.0 17.0 0.00 0.00 0.00 62 1011.3
20260505122705 68 217 16.0 18.0 0.00 0.00 0.00 65 1011.3
20260505121705 67 221 14.0 18.0 0.00 0.00 0.00 64 1011.2
20260505121205 67 226 12.0 18.0 0.00 0.00 0.00 64 1011.2
20260505120705 66 228 14.0 18.0 0.00 0.00 0.00 65 1011.2
20260505120205 66 217 12.0 17.0 0.00 0.00 0.00 66 1011.1
20260505115705 66 213 12.0 18.0 0.00 0.00 0.00 66 1011.1
20260505115205 65 214 13.0 16.0 0.00 0.00 0.00 66 1011.1
20260505114705 65 208 12.0 17.0 0.00 0.00 0.00 67 1011.0
20260505114204 65 207 13.0 20.0 0.00 0.00 0.00 67 1011.0
20260505113704 64 201 13.0 20.0 0.00 0.00 0.00 67 1011.0
20260505112205 63 236 13.0 17.0 0.00 0.00 0.00 69 1010.8
20260505111705 63 230 14.0 20.0 0.00 0.00 0.00 70 1010.9
20260505102205 61 209 10.0 15.0 0.00 0.00 0.00 72 1010.6
20260505101705 61 204 7.0 15.0 0.00 0.00 0.00 72 1010.5
20260505101205 61 196 10.0 15.0 0.00 0.00 0.00 71 1010.5
20260505100705 61 210 10.0 16.0 0.00 0.00 0.00 71 1010.5
20260505100205 61 207 10.0 15.0 0.00 0.00 0.00 71 1010.4
20260505095705 61 201 10.0 15.0 0.00 0.00 0.00 71 1010.4
20260505095204 61 206 10.0 15.0 0.00 0.00 0.00 72 1010.4
20260505094704 61 213 10.0 13.0 0.00 0.00 0.00 71 1010.3
20260505094205 61 196 11.0 16.0 0.00 0.00 0.00 72 1010.4
20260505093705 61 184 6.0 12.0 0.00 0.00 0.00 73 1010.3
20260505093205 61 193 9.0 12.0 0.00 0.00 0.00 72 1010.4
20260505092705 61 205 8.0 14.0 0.00 0.00 0.00 73 1010.3
20260505092205 61 171 6.0 12.0 0.00 0.00 0.00 74 1010.3
20260505091705 61 187 8.0 14.0 0.00 0.00 0.00 74 1010.3
20260505091204 61 195 9.0 12.0 0.00 0.00 0.00 73 1010.2
20260505090705 62 204 7.0 13.0 0.00 0.00 0.00 73 1010.2
20260505090204 62 182 8.0 12.0 0.00 0.00 0.00 73 1010.2
20260505085705 62 196 8.0 12.0 0.00 0.00 0.00 73 1010.2
20260505085205 62 190 9.0 14.0 0.00 0.00 0.00 73 1010.2
20260505084705 62 208 9.0 14.0 0.00 0.00 0.00 73 1010.2
20260505084204 62 196 8.0 15.0 0.00 0.00 0.00 73 1010.2
20260505083205 61 210 9.0 14.0 0.00 0.00 0.00 74 1010.2
20260505082705 61 197 8.0 13.0 0.00 0.00 0.00 75 1010.2
20260505082205 61 191 10.0 16.0 0.00 0.00 0.00 75 1010.1
20260505081705 61 195 9.0 16.0 0.00 0.00 0.00 75 1010.2
20260505081205 61 190 9.0 14.0 0.00 0.00 0.00 74 1010.3
20260505080705 61 210 9.0 14.0 0.00 0.00 0.00 73 1010.2
20260505080205 61 198 10.0 15.0 0.00 0.00 0.00 73 1010.1
20260505075705 61 207 10.0 14.0 0.00 0.00 0.00 72 1010.1
20260505075205 61 204 10.0 17.0 0.00 0.00 0.00 72 1010.2
20260505073705 62 210 13.0 18.0 0.00 0.00 0.00 71 1010.1
20260505073205 62 205 12.0 18.0 0.00 0.00 0.00 70 1010.1
20260505072705 63 206 12.0 18.0 0.00 0.00 0.00 70 1010.1
20260505072205 63 209 12.0 17.0 0.00 0.00 0.00 70 1010.0
20260505070704 63 208 11.0 17.0 0.00 0.00 0.00 68 1010.1
20260505065704 64 199 10.0 17.0 0.00 0.00 0.00 67 1010.2
20260505065204 64 197 12.0 20.0 0.00 0.00 0.00 66 1010.1
20260505064705 64 212 13.0 18.0 0.00 0.00 0.00 66 1010.1
20260505064204 64 201 13.0 16.0 0.00 0.00 0.00 66 1010.1
20260505063705 64 205 12.0 20.0 0.00 0.00 0.00 66 1010.1
20260505063205 64 199 12.0 16.0 0.00 0.00 0.00 66 1010.1
20260505062705 64 197 13.0 25.0 0.00 0.00 0.00 66 1010.0
20260505062204 64 200 14.0 20.0 0.00 0.00 0.00 66 1010.0
20260505061704 64 207 13.0 21.0 0.00 0.00 0.00 66 1010.0
20260505061205 64 192 11.0 15.0 0.00 0.00 0.00 66 1010.0
20260505060704 64 192 13.0 20.0 0.00 0.00 0.00 67 1010.0
20260505060205 64 190 12.0 18.0 0.00 0.00 0.00 68 1010.0
20260505055705 64 196 11.0 16.0 0.00 0.00 0.00 68 1010.0
20260505055204 64 186 10.0 16.0 0.00 0.00 0.00 68 1010.0
20260505054704 64 195 11.0 14.0 0.00 0.00 0.00 69 1010.1
20260505054204 64 189 9.0 14.0 0.00 0.00 0.00 69 1010.0
20260505053704 64 192 10.0 13.0 0.00 0.00 0.00 70 1010.1
20260505052704 64 196 9.0 14.0 0.00 0.00 0.00 69 1010.1
20260505052204 64 200 10.0 15.0 0.00 0.00 0.00 69 1010.1
20260505051704 64 192 9.0 16.0 0.00 0.00 0.00 69 1010.1
20260505051205 64 182 9.0 16.0 0.00 0.00 0.00 69 1009.9
20260505050705 64 189 8.0 15.0 0.00 0.00 0.00 68 1010.0
20260505050204 64 198 10.0 15.0 0.00 0.00 0.00 67 1010.0
20260505041205 64 191 9.0 15.0 0.00 0.00 0.00 64 1009.9
20260505040705 64 200 9.0 13.0 0.00 0.00 0.00 65 1009.9
20260505035705 64 199 8.0 13.0 0.00 0.00 0.00 65 1009.9
20260505035205 64 203 9.0 15.0 0.00 0.00 0.00 65 1009.9
20260505034704 64 203 9.0 15.0 0.00 0.00 0.00 66 1009.8
20260505034205 65 201 8.0 13.0 0.00 0.00 0.00 66 1009.9
20260505033705 65 192 8.0 13.0 0.00 0.00 0.00 66 1009.8
20260505033205 65 194 8.0 12.0 0.00 0.00 0.00 66 1009.8
20260505032705 65 200 9.0 12.0 0.00 0.00 0.00 66 1009.9
20260505032204 65 201 9.0 15.0 0.00 0.00 0.00 65 1009.8
20260505031705 65 192 10.0 14.0 0.00 0.00 0.00 65 1009.8
20260505031205 65 188 9.0 14.0 0.00 0.00 0.00 65 1009.9
20260505025705 64 184 7.0 12.0 0.00 0.00 0.00 66 1009.6
20260505025205 64 176 6.0 12.0 0.00 0.00 0.00 67 1009.7
20260505024704 64 176 7.0 13.0 0.00 0.00 0.00 67 1009.7
20260505024204 65 191 7.0 14.0 0.00 0.00 0.00 66 1009.8
20260505023204 65 184 6.0 12.0 0.00 0.00 0.00 66 1009.8
20260505022204 65 185 7.0 12.0 0.00 0.00 0.00 66 1009.7
20260505021704 65 181 6.0 13.0 0.00 0.00 0.00 66 1009.7
20260505021205 65 181 8.0 12.0 0.00 0.00 0.00 66 1009.7
20260505020705 65 196 7.0 12.0 0.00 0.00 0.00 66 1009.8
20260505020204 65 185 7.0 14.0 0.00 0.00 0.00 65 1009.7
20260505015705 65 190 9.0 15.0 0.00 0.00 0.00 65 1009.8
20260505015204 65 198 9.0 15.0 0.00 0.00 0.00 65 1009.9
20260505014704 66 198 8.0 13.0 0.00 0.00 0.00 64 1009.8
20260505014204 66 186 9.0 13.0 0.00 0.00 0.00 63 1009.8
20260505013705 66 192 7.0 14.0 0.00 0.00 0.00 63 1009.8
20260505013204 66 206 7.0 18.0 0.00 0.00 0.00 61 1009.8
20260505012704 66 199 7.0 14.0 0.00 0.00 0.00 60 1009.8
20260505012204 66 198 8.0 17.0 0.00 0.00 0.00 59 1009.7
20260505011704 67 171 9.0 16.0 0.00 0.00 0.00 56 1009.6
20260505011205 67 186 8.0 12.0 0.00 0.00 0.00 55 1009.4
20260505010205 67 171 6.0 14.0 0.00 0.00 0.00 53 1009.4
20260505005705 67 186 7.0 14.0 0.00 0.00 0.00 54 1009.2
20260505005204 67 193 7.0 15.0 0.00 0.00 0.00 54 1009.2
20260505004704 67 193 7.0 12.0 0.00 0.00 0.00 54 1009.2
20260505004204 67 194 6.0 9.0 0.00 0.00 0.00 54 1009.2
20260505003704 67 188 5.0 9.0 0.00 0.00 0.00 53 1009.1
20260505003205 67 191 4.0 9.0 0.00 0.00 0.00 54 1009.2
20260505002204 67 193 5.0 7.0 0.00 0.00 0.00 54 1009.2
20260505001705 68 190 5.0 9.0 0.00 0.00 0.00 52 1009.2
20260505001204 68 185 4.0 7.0 0.00 0.00 0.00 54 1009.2
20260505000705 68 190 4.0 7.0 0.00 0.00 0.00 52 1009.2
20260505000205 68 201 6.0 10.0 0.00 0.00 0.00 53 1009.2
20260504235205 68 200 6.0 12.0 0.00 0.00 0.00 51 1009.2
20260504234705 68 182 7.0 10.0 0.00 0.00 0.00 51 1009.2
20260504234204 69 205 8.0 14.0 0.00 0.00 0.00 53 1009.2
20260504233704 69 209 8.0 12.0 0.00 0.00 0.00 54 1009.2
20260504232205 69 204 9.0 14.0 0.00 0.00 0.00 50 1009.1
20260504231704 70 195 9.0 16.0 0.00 0.00 0.00 48 1009.0
20260504230205 70 181 7.0 15.0 0.00 0.00 0.00 47 1009.0
20260504225705 70 183 9.0 16.0 0.00 0.00 0.00 47 1009.1
20260504225204 70 190 10.0 16.0 0.00 0.00 0.00 46 1009.0
20260504224204 70 195 7.0 18.0 0.00 0.00 0.00 45 1009.0
20260504223705 70 170 10.0 20.0 0.00 0.00 0.00 43 1009.0
20260504223204 70 198 9.0 16.0 0.00 0.00 0.00 44 1008.9
20260504222704 70 192 9.0 15.0 0.00 0.00 0.00 43 1009.0
20260504222204 71 163 10.0 17.0 0.00 0.00 0.00 43 1009.0
20260504221204 71 186 9.0 15.0 0.00 0.00 0.00 41 1009.1
20260504220705 71 196 10.0 15.0 0.00 0.00 0.00 44 1009.2
20260504220205 71 193 9.0 16.0 0.00 0.00 0.00 44 1009.1
20260504215704 72 182 10.0 18.0 0.00 0.00 0.00 44 1009.1
20260504215204 72 195 10.0 16.0 0.00 0.00 0.00 42 1009.1
20260504214704 73 181 10.0 16.0 0.00 0.00 0.00 41 1009.1
20260504214204 73 198 11.0 20.0 0.00 0.00 0.00 41 1009.0
20260504213704 74 170 11.0 20.0 0.00 0.00 0.00 40 1009.2
20260504213205 74 183 7.0 15.0 0.00 0.00 0.00 41 1009.1
20260504212204 75 190 10.0 20.0 0.00 0.00 0.00 41 1009.2
20260504211705 74 194 9.0 17.0 0.00 0.00 0.00 41 1009.3
20260504211205 74 201 9.0 14.0 0.00 0.00 0.00 42 1009.3
20260504210704 74 185 10.0 17.0 0.00 0.00 0.00 42 1009.2
20260504205704 75 200 8.0 13.0 0.00 0.00 0.00 40 1009.3
20260504205204 74 182 9.0 17.0 0.00 0.00 0.00 40 1009.2
20260504204704 75 202 10.0 15.0 0.00 0.00 0.00 41 1009.3
20260504204204 75 204 9.0 16.0 0.00 0.00 0.00 39 1009.3
20260504203704 75 211 10.0 20.0 0.00 0.00 0.00 39 1009.3
20260504203204 75 187 12.0 20.0 0.00 0.00 0.00 38 1009.3
20260504202704 74 194 10.0 17.0 0.00 0.00 0.00 40 1009.4
20260504202204 74 202 10.0 21.0 0.00 0.00 0.00 37 1009.5
20260504201704 74 209 10.0 20.0 0.00 0.00 0.00 42 1009.6
20260504201204 74 196 11.0 18.0 0.00 0.00 0.00 40 1009.6
20260504200704 74 193 10.0 20.0 0.00 0.00 0.00 39 1009.6
20260504200204 74 205 10.0 14.0 0.00 0.00 0.00 41 1009.7
20260504195204 74 205 10.0 20.0 0.00 0.00 0.00 38 1009.9
20260504194704 74 210 9.0 13.0 0.00 0.00 0.00 38 1009.9
20260504194204 74 209 9.0 16.0 0.00 0.00 0.00 40 1010.0
20260504193704 74 213 11.0 16.0 0.00 0.00 0.00 39 1010.2
20260504193204 74 204 9.0 16.0 0.00 0.00 0.00 39 1010.2
20260504192704 74 195 12.0 17.0 0.00 0.00 0.00 40 1010.3
20260504192204 73 202 9.0 12.0 0.00 0.00 0.00 41 1010.3
20260504191704 73 187 9.0 15.0 0.00 0.00 0.00 40 1010.4
20260504191204 73 192 7.0 13.0 0.00 0.00 0.00 42 1010.4
20260504190204 73 204 9.0 13.0 0.00 0.00 0.00 41 1010.5
20260504185704 73 194 7.0 16.0 0.00 0.00 0.00 39 1010.6
20260504185204 73 200 10.0 17.0 0.00 0.00 0.00 37 1010.7
20260504184704 73 201 12.0 17.0 0.00 0.00 0.00 40 1010.8
20260504184204 72 177 10.0 17.0 0.00 0.00 0.00 36 1010.9
20260504183704 72 202 9.0 13.0 0.00 0.00 0.00 41 1011.0
20260504183204 72 189 11.0 18.0 0.00 0.00 0.00 37 1011.1
20260504182204 72 194 11.0 16.0 0.00 0.00 0.00 37 1011.2